FLOCK 3P-65

Last updated on Wed Feb 14 2018 16:20:32 GMT+0000 (Coordinated Universal Time)

1 42028U 17008CJ 18045.47972114 .00001349 00000-0 58784-4 0 9998 2 42028 97.4663 111.0767 0009844 83.4852 276.7506 15.23913116 55275

Satellite not in orbit

FLOCK 3P-65